LZ0VRC-10 Weather Reports


Display with metric or nautical units.
time (UTC)temp
F
wind
direction
speed
MPH
gust
MPH
rain 1hr
in
rain 24hr
in
rain mn
in
humidity
%
barometer
mb
20260507201959 66 0.0 0.0 0.00 0.00 0.00 56 1016.3
20260507201954 66 0.0 0.0 0.00 0.00 0.00 56 1016.3
20260507200459 64 0.0 0.0 0.00 0.00 0.00 61 1016.5
20260507200454 64 0.0 0.0 0.00 0.00 0.00 61 1016.5
20260507194959 65 0.0 0.0 0.00 0.00 0.00 60 1016.3
20260507194954 65 0.0 0.0 0.00 0.00 0.00 60 1016.3
20260507193459 66 0.0 0.0 0.00 0.00 0.00 59 1016.5
20260507193454 66 0.0 0.0 0.00 0.00 0.00 59 1016.5
20260507191954 66 0.0 0.0 0.00 0.00 0.00 60 1016.6
20260507190459 66 0.0 0.0 0.00 0.00 0.00 61 1016.6
20260507190454 66 0.0 0.0 0.00 0.00 0.00 61 1016.6
20260507184959 65 0.0 0.0 0.00 0.00 0.00 64 1016.5
20260507184954 65 0.0 0.0 0.00 0.00 0.00 64 1016.5
20260507183459 65 0.0 0.0 0.00 0.00 0.00 65 1016.2
20260507183454 65 0.0 0.0 0.00 0.00 0.00 65 1016.2
20260507181954 65 0.0 0.0 0.00 0.00 0.00 65 1016.0
20260507180459 66 0.0 0.0 0.00 0.00 0.00 61 1016.0
20260507180454 66 0.0 0.0 0.00 0.00 0.00 61 1016.0
20260507174954 66 0.0 0.0 0.00 0.00 0.00 61 1016.1
20260507173454 68 0.0 0.0 0.00 0.00 0.00 53 1016.1
20260507171954 69 0.0 0.0 0.00 0.00 0.00 45 1016.1
20260507170454 69 0.0 0.0 0.00 0.00 0.00 48 1016.1
20260507164954 69 0.0 0.0 0.00 0.00 0.00 51 1016.2
20260507163454 68 0.0 0.0 0.00 0.00 0.00 56 1016.2
20260507161959 68 0.0 0.0 0.00 0.00 0.00 58 1016.3
20260507161954 68 0.0 0.0 0.00 0.00 0.00 58 1016.3
20260507160454 68 0.0 0.0 0.00 0.00 0.00 59 1016.1
20260507154954 69 0.0 0.0 0.00 0.00 0.00 57 1016.1
20260507153459 71 0.0 0.0 0.00 0.00 0.00 55 1016.2
20260507153454 71 0.0 0.0 0.00 0.00 0.00 55 1016.2
20260507151954 71 0.0 0.0 0.00 0.00 0.00 56 1016.2
20260507150455 71 0.0 0.0 0.00 0.00 0.00 55 1016.1
20260507144955 73 0.0 0.0 0.00 0.00 0.00 51 1016.3
20260507143455 74 0.0 0.0 0.00 0.00 0.00 49 1016.3
20260507141955 73 0.0 0.0 0.00 0.00 0.00 50 1016.3
20260507140459 73 0.0 0.0 0.00 0.00 0.00 48 1016.4
20260507140455 73 0.0 0.0 0.00 0.00 0.00 48 1016.4
20260507134956 73 0.0 0.0 0.00 0.00 0.00 46 1016.5
20260507133455 71 0.0 0.0 0.00 0.00 0.00 48 1016.5
20260507131955 71 0.0 0.0 0.00 0.00 0.00 52 1016.6
20260507130500 72 0.0 0.0 0.00 0.00 0.00 51 1016.7
20260507130455 72 0.0 0.0 0.00 0.00 0.00 51 1016.7
20260507124955 73 0.0 0.0 0.00 0.00 0.00 47 1016.9
20260507123455 74 0.0 0.0 0.00 0.00 0.00 46 1017.0
20260507121955 74 0.0 0.0 0.00 0.00 0.00 50 1016.9
20260507120500 72 0.0 0.0 0.00 0.00 0.00 54 1016.9
20260507120455 72 0.0 0.0 0.00 0.00 0.00 54 1016.9
20260507114955 71 0.0 0.0 0.00 0.00 0.00 54 1016.9
20260507113455 71 0.0 0.0 0.00 0.00 0.00 52 1016.8
20260507111955 71 0.0 0.0 0.00 0.00 0.00 50 1016.8
20260507110455 72 0.0 0.0 0.00 0.00 0.00 47 1016.9
20260507105000 75 0.0 0.0 0.00 0.00 0.00 43 1017.0
20260507104955 75 0.0 0.0 0.00 0.00 0.00 43 1017.0
20260507103455 74 0.0 0.0 0.00 0.00 0.00 42 1017.0
20260507101955 73 0.0 0.0 0.00 0.00 0.00 43 1017.1
20260507100455 74 0.0 0.0 0.00 0.00 0.00 42 1017.1
20260507094955 75 0.0 0.0 0.00 0.00 0.00 41 1017.1
20260507093500 76 0.0 0.0 0.00 0.00 0.00 37 1017.1
20260507093455 76 0.0 0.0 0.00 0.00 0.00 37 1017.1
20260507091955 76 0.0 0.0 0.00 0.00 0.00 36 1017.1
20260507090500 74 0.0 0.0 0.00 0.00 0.00 37 1017.0
20260507090455 74 0.0 0.0 0.00 0.00 0.00 37 1017.0
20260507085000 78 0.0 0.0 0.00 0.00 0.00 33 1017.0
20260507084955 78 0.0 0.0 0.00 0.00 0.00 33 1017.0
20260507083500 79 0.0 0.0 0.00 0.00 0.00 32 1017.0
20260507083455 79 0.0 0.0 0.00 0.00 0.00 32 1017.0
20260507081955 75 0.0 0.0 0.00 0.00 0.00 36 1016.9
20260507080455 74 0.0 0.0 0.00 0.00 0.00 37 1016.8
20260507074955 80 0.0 0.0 0.00 0.00 0.00 30 1016.7
20260507073455 80 0.0 0.0 0.00 0.00 0.00 30 1016.7
20260507071955 78 0.0 0.0 0.00 0.00 0.00 32 1016.8
20260507070500 76 0.0 0.0 0.00 0.00 0.00 36 1016.8
20260507070455 76 0.0 0.0 0.00 0.00 0.00 36 1016.8
20260507065000 68 0.0 0.0 0.00 0.00 0.00 45 1016.9
20260507064955 68 0.0 0.0 0.00 0.00 0.00 45 1016.9
20260507063500 68 0.0 0.0 0.00 0.00 0.00 47 1016.9
20260507063455 68 0.0 0.0 0.00 0.00 0.00 47 1016.9
20260507061955 67 0.0 0.0 0.00 0.00 0.00 49 1016.7
20260507060455 67 0.0 0.0 0.00 0.00 0.00 49 1016.5
20260507054955 64 0.0 0.0 0.00 0.00 0.00 52 1016.4
20260507053500 67 0.0 0.0 0.00 0.00 0.00 47 1016.3
20260507053455 67 0.0 0.0 0.00 0.00 0.00 47 1016.3
20260507052000 68 0.0 0.0 0.00 0.00 0.00 44 1015.8
20260507051955 68 0.0 0.0 0.00 0.00 0.00 44 1015.8
20260507050500 67 0.0 0.0 0.00 0.00 0.00 45 1015.7
20260507050455 67 0.0 0.0 0.00 0.00 0.00 45 1015.7
20260507044955 66 0.0 0.0 0.00 0.00 0.00 46 1015.4
20260507043500 66 0.0 0.0 0.00 0.00 0.00 45 1015.4
20260507043455 66 0.0 0.0 0.00 0.00 0.00 45 1015.4
20260507042000 66 0.0 0.0 0.00 0.00 0.00 45 1015.2
20260507041955 66 0.0 0.0 0.00 0.00 0.00 45 1015.2
20260507040500 65 0.0 0.0 0.00 0.00 0.00 46 1015.2
20260507040455 65 0.0 0.0 0.00 0.00 0.00 46 1015.2
20260507035000 62 0.0 0.0 0.00 0.00 0.00 49 1015.0
20260507034955 62 0.0 0.0 0.00 0.00 0.00 49 1015.0
20260507033456 62 0.0 0.0 0.00 0.00 0.00 49 1015.0
20260507031956 66 0.0 0.0 0.00 0.00 0.00 40 1014.4
20260507030456 69 0.0 0.0 0.00 0.00 0.00 37 1014.3
20260507024956 69 0.0 0.0 0.00 0.00 0.00 35 1014.3
20260507023500 68 0.0 0.0 0.00 0.00 0.00 36 1014.2
20260507023456 68 0.0 0.0 0.00 0.00 0.00 36 1014.2
20260507021956 67 0.0 0.0 0.00 0.00 0.00 38 1014.1
20260507020456 66 0.0 0.0 0.00 0.00 0.00 40 1014.1
20260507015001 67 0.0 0.0 0.00 0.00 0.00 39 1014.1
20260507014956 67 0.0 0.0 0.00 0.00 0.00 39 1014.1
20260507013501 69 0.0 0.0 0.00 0.00 0.00 36 1014.0
20260507013456 69 0.0 0.0 0.00 0.00 0.00 36 1014.0
20260507011956 70 0.0 0.0 0.00 0.00 0.00 35 1013.9
20260507010456 69 0.0 0.0 0.00 0.00 0.00 36 1013.8
20260507005001 69 0.0 0.0 0.00 0.00 0.00 35 1013.8
20260507004956 69 0.0 0.0 0.00 0.00 0.00 35 1013.8
20260507003456 71 0.0 0.0 0.00 0.00 0.00 33 1013.7
20260507001956 70 0.0 0.0 0.00 0.00 0.00 34 1013.7
20260507000456 70 0.0 0.0 0.00 0.00 0.00 34 1013.6
20260506234956 67 0.0 0.0 0.00 0.00 0.00 39 1013.8
20260506233501 65 0.0 0.0 0.00 0.00 0.00 42 1013.8
20260506233456 65 0.0 0.0 0.00 0.00 0.00 42 1013.8
20260506231956 71 0.0 0.0 0.00 0.00 0.00 34 1013.7
20260506230501 71 0.0 0.0 0.00 0.00 0.00 33 1013.7
20260506230456 71 0.0 0.0 0.00 0.00 0.00 33 1013.7
20260506225001 72 0.0 0.0 0.00 0.00 0.00 32 1013.6
20260506224956 72 0.0 0.0 0.00 0.00 0.00 32 1013.6
20260506223456 72 0.0 0.0 0.00 0.00 0.00 32 1013.6
20260506221956 71 0.0 0.0 0.00 0.00 0.00 33 1013.7
20260506220501 70 0.0 0.0 0.00 0.00 0.00 34 1013.7
20260506220456 70 0.0 0.0 0.00 0.00 0.00 34 1013.7
20260506215001 64 0.0 0.0 0.00 0.00 0.00 46 1013.9
20260506214956 64 0.0 0.0 0.00 0.00 0.00 46 1013.9
20260506213501 65 0.0 0.0 0.00 0.00 0.00 45 1013.9
20260506213456 65 0.0 0.0 0.00 0.00 0.00 45 1013.9
20260506212001 66 0.0 0.0 0.00 0.00 0.00 42 1013.9
20260506211956 66 0.0 0.0 0.00 0.00 0.00 42 1013.9
20260506210501 65 0.0 0.0 0.00 0.00 0.00 43 1013.9
20260506210456 65 0.0 0.0 0.00 0.00 0.00 43 1013.9
20260506205001 66 0.0 0.0 0.00 0.00 0.00 43 1013.9
20260506204956 66 0.0 0.0 0.00 0.00 0.00 43 1013.9
20260506203501 67 0.0 0.0 0.00 0.00 0.00 42 1013.9
20260506203456 67 0.0 0.0 0.00 0.00 0.00 42 1013.9